This is the latest recevied weather packets stored in our database for station/object KG5MMT-12. If no packets are shown the sender has not sent any weather packets the latest 10 day(s).
| Time | Temp. | Humidity | Pressure | Rain* | Wind** | Luminosity | Snow |
|---|---|---|---|---|---|---|---|
| 1777867734 | 8.89° C | 58% | 0 hPa | 0 mm | - | - | - |
| 1777867433 | 8.89° C | 57% | 0 hPa | 0 mm | - | - | - |
| 1777867133 | 8.33° C | 59% | 0 hPa | 0 mm | - | - | - |
| 1777866833 | 8.33° C | 59% | 0 hPa | 0 mm | - | - | - |
| 1777866534 | 8.33° C | 60% | 0 hPa | 0 mm | - | - | - |
| 1777866233 | 8.89° C | 61% | 0 hPa | 0 mm | - | - | - |
| 1777865934 | 8.89° C | 59% | 0 hPa | 0 mm | - | - | - |
| 1777865634 | 8.89° C | 59% | 0 hPa | 0 mm | - | - | - |
| 1777865334 | 8.89° C | 60% | 0 hPa | 0 mm | - | - | - |
| 1777865034 | 9.44° C | 60% | 0 hPa | 0 mm | - | - | - |
| 1777864734 | 9.44° C | 58% | 0 hPa | 0 mm | - | - | - |
| 1777864434 | 9.44° C | 56% | 0 hPa | 0 mm | - | - | - |
| 1777864134 | 9.44° C | 56% | 0 hPa | 0 mm | - | - | - |
| 1777863834 | 10° C | 54% | 0 hPa | 0 mm | - | - | - |
| 1777863534 | 10° C | 55% | 0 hPa | 0 mm | - | - | - |
| 1777863234 | 10.56° C | 54% | 0 hPa | 0 mm | - | - | - |
| 1777862934 | 10.56° C | 53% | 0 hPa | 0 mm | - | - | - |
| 1777862634 | 10.56° C | 53% | 0 hPa | 0 mm | - | - | - |
| 1777862334 | 11.11° C | 53% | 0 hPa | 0 mm | - | - | - |
| 1777862034 | 11.67° C | 51% | 0 hPa | 0 mm | - | - | - |
| 1777861734 | 11.67° C | 49% | 0 hPa | 0 mm | - | - | - |
| 1777861434 | 12.22° C | 49% | 0 hPa | 0 mm | - | - | - |
| 1777861134 | 12.78° C | 47% | 0 hPa | 0 mm | - | - | - |
| 1777860834 | 13.33° C | 42% | 0 hPa | 0 mm | - | - | - |
| 1777860534 | 13.89° C | 42% | 0 hPa | 0 mm | - | - | - |
* Rain latest hour (hover to see other rain measurements)
** Current wind speed in m/s (hover to see current wind gust speed)